Regional Weather Roundup
Issued by NWS

Home | Current Version | Previous Version | Text Only | Print | Product List | Glossary Off
Versions: 1 2 3 4 5 6 7 8 9 10 11 12 13 14 15 16 17 18 19 20 21 22 23 24 25 26 27 28 29 30 31 32 33 34 35 36 37 38 39 40 41 42 43 44 45 46 47 48 49 50

000
ASUS43 KFSD 131010
RWRSD

WEATHER ROUNDUP FOR SOUTH DAKOTA
NATIONAL WEATHER SERVICE SIOUX FALLS SD
400 AM CST SAT FEB 13 2016

NOTE: "FAIR" INDICATES FEW OR NO CLOUDS BELOW 12,000 FEET WITH NO
SIGNIFICANT WEATHER AND/OR OBSTRUCTIONS TO VISIBILITY.


SDZ001>005-009-010-012>017-131100-
NORTHWEST AND NORTH CENTRAL SOUTH DAKOTA

CITY           SKY/WX    TMP DP  RH WIND       PRES   REMARKS
BUFFALO          N/A     20  17  88 SE16      30.04F WCI   6
FAITH            N/A     13   8  81 SE26G32   30.20F WCI  -7
MOBRIDGE       FLURRIES   7   0  73 SE14      30.37F WCI -10
$$

SDZ012>016-024>037-041>051-057-063-072>074-131100-
SOUTHWEST AND SOUTH CENTRAL SOUTH DAKOTA

CITY           SKY/WX    TMP DP  RH WIND       PRES   REMARKS
RAPID CTY ARPT CLOUDY    27  24  89 SE14      30.10F WCI  16
PIERRE         CLOUDY    11   4  73 E17G29    30.38F WCI  -6
CUSTER         CLOUDY    23  20  88 W5        30.05F WCI  17
ELLSWORTH AFB  CLOUDY    27  26  94 SE12      30.09  WCI  17
PHILIP         CLOUDY    22  18  85 SE15G24   30.24F WCI   9
PINE RIDGE     CLOUDY    33  29  85 S14       30.15F WCI  23
SPEARFISH      CLOUDY    23  23 100 CALM      30.06F
WINNER         CLOUDY    17  10  74 SE15      30.39F WCI   2
$$

SDZ004>011-016>023-039-040-131100-
NORTHEAST SOUTH DAKOTA

CITY           SKY/WX    TMP DP  RH WIND       PRES   REMARKS
ABERDEEN       CLOUDY     2  -7  66 SE6       30.55F WCI  -9
WATERTOWN      CLOUDY    -5 -13  68 S5        30.52S WCI -16
BROOKINGS      CLOUDY    -5 -11  75 E7        30.54F WCI -19
SISSETON         N/A     -8 -13  78 CALM      30.59F
$$

SDZ017-020-022-023-036>040-048>070-131100-
SOUTHEAST SOUTH DAKOTA

CITY           SKY/WX    TMP DP  RH WIND       PRES   REMARKS
SIOUX FALLS    CLOUDY     0  -9  65 E6        30.57F WCI -12
HURON          CLOUDY     4  -5  66 SE13      30.53F WCI -13
CHAMBERLAIN    CLOUDY    10   5  80 SE14      30.46F WCI  -6
MITCHELL       CLOUDY     7  -2  66 SE12      30.55F WCI  -8
YANKTON        PTCLDY     7  -2  66 E9        30.56F WCI  -7
$$

ABBREVIATIONS USED IN REMARKS
   TC - TEMPERATURE IN CELSIUS
  WCI - WIND CHILL INDEX
   HX - HEAT INDEX
  VSB - VISIBILITY




USA.gov is the U.S. government's official web portal to all federal, state and local government web resources and services.